Location: �clusier
(49.9361°N, 2.7869°E)
Time: 20:15:59
(UTC+00:00)

Cosmos 1452 Rocket - Pass Details

Date: 27 October 2021
Orbit: 767 x 775 km, 74.1° (Epoch: 04 December)

Event Time Altitude Azimuth Distance (km) Brightness Sun altitude
Rises 03:48:18 0° 342° (NNW) 3,266 6.7 -26.5°
Reaches altitude 10° 03:51:32 10° 2° (N) 2,335 6.1 -26.0°
Maximum altitude 03:55:00 17° 44° (NE) 1,872 6.1 -25.4°
Drops below altitude 10° 03:58:28 10° 85° (E) 2,326 7.1 -24.9°
Sets 04:01:40 0° 105° (ESE) 3,249 7.8 -24.4°
